EW3156 Weather Reports


Display with metric or nautical units.
time (UTC)temp
F
wind
direction
speed
MPH
gust
MPH
rain 1hr
in
rain 24hr
in
rain mn
in
humidity
%
barometer
mb
20260506210049 74 327 0.0 3.0 0.07 0.07 0.07 92 1011.5
20260506204534 75 175 0.0 2.0 0.00 0.00 0.00 89 1011.3
20260506203036 75 176 0.0 3.0 0.00 0.00 0.00 86 1011.2
20260506201532 76 201 0.0 10.0 0.00 0.00 0.00 85 1011.5
20260506200033 77 198 1.0 3.0 0.00 0.00 0.00 84 1011.6
20260506194531 76 170 0.0 3.0 0.00 0.00 0.00 84 1012.0
20260506193037 76 218 1.0 4.0 0.00 0.00 0.00 83 1012.4
20260506191530 76 186 0.0 9.0 0.00 0.00 0.00 83 1012.6
20260506190032 76 212 0.0 4.0 0.00 0.00 0.00 82 1012.7
20260506184537 77 317 0.0 4.0 0.00 0.00 0.00 82 1012.7
20260506183028 77 161 0.0 4.0 0.00 0.00 0.00 82 1012.9
20260506181537 77 202 2.0 7.0 0.00 0.00 0.00 81 1012.9
20260506180028 78 161 2.0 6.0 0.00 0.00 0.00 79 1012.9
20260506174533 78 148 2.0 7.0 0.00 0.00 0.00 79 1013.0
20260506173028 78 149 1.0 8.0 0.00 0.00 0.00 77 1013.1
20260506171532 79 320 2.0 10.0 0.00 0.00 0.00 76 1013.2
20260506170029 78 319 2.0 9.0 0.00 0.00 0.00 79 1013.1
20260506164542 77 317 3.0 8.0 0.00 0.00 0.00 77 1013.2
20260506163025 79 169 2.0 9.0 0.00 0.00 0.00 76 1013.2
20260506161523 79 134 1.0 5.0 0.00 0.00 0.00 77 1013.1
20260506160019 78 275 2.0 5.0 0.00 0.00 0.00 77 1013.1
20260506154518 78 136 0.0 5.0 0.00 0.00 0.00 77 1013.2
20260506153014 76 179 2.0 7.0 0.00 0.00 0.00 79 1013.2
20260506151514 75 146 1.0 4.0 0.00 0.00 0.00 81 1013.4
20260506150007 74 289 1.0 6.0 0.00 0.00 0.00 82 1013.5
20260506144506 74 240 2.0 8.0 0.00 0.00 0.00 84 1013.6
20260506143101 72 319 0.0 8.0 0.00 0.00 0.00 85 1013.6
20260506141558 72 189 1.0 5.0 0.00 0.00 0.00 86 1013.5
20260506140056 71 221 2.0 7.0 0.00 0.00 0.00 87 1013.6
20260506134555 70 188 1.0 5.0 0.00 0.00 0.00 88 1013.7
20260506133108 70 209 1.0 6.0 0.00 0.00 0.00 89 1013.9
20260506131613 69 131 1.0 8.0 0.00 0.00 0.00 90 1013.9
20260506130051 68 207 1.0 5.0 0.00 0.00 0.00 91 1014.0
20260506124550 68 161 0.0 6.0 0.00 0.00 0.00 91 1013.9
20260506123047 67 320 1.0 10.0 0.00 0.00 0.00 91 1013.7
20260506121553 67 173 0.0 4.0 0.00 0.00 0.00 90 1013.6
20260506120056 67 343 0.0 4.0 0.00 0.00 0.00 90 1013.2
20260506114540 67 176 0.0 8.0 0.00 0.00 0.00 90 1013.1
20260506113037 67 208 0.0 3.0 0.00 0.00 0.00 90 1012.6
20260506111541 67 151 0.0 3.0 0.00 0.00 0.00 89 1012.6
20260506110035 67 204 0.0 7.0 0.00 0.00 0.00 89 1012.5
20260506104542 67 142 0.0 3.0 0.00 0.00 0.00 89 1012.2
20260506103039 67 211 0.0 4.0 0.00 0.00 0.00 88 1012.1
20260506101530 67 142 1.0 4.0 0.00 0.00 0.00 88 1012.0
20260506100029 67 157 0.0 3.0 0.00 0.00 0.00 87 1011.7
20260506094530 67 203 0.0 3.0 0.00 0.00 0.00 87 1011.5
20260506093027 67 132 0.0 5.0 0.00 0.00 0.00 86 1011.4
20260506091528 67 186 0.0 3.0 0.00 0.00 0.00 86 1011.2
20260506090026 68 315 1.0 5.0 0.00 0.00 0.00 85 1011.2
20260506084554 68 198 0.0 5.0 0.00 0.00 0.00 85 1010.9
20260506083023 68 178 2.0 7.0 0.00 0.00 0.00 84 1011.0
20260506081534 68 170 0.0 8.0 0.00 0.00 0.00 84 1011.1
20260506073018 69 166 1.0 5.0 0.00 0.00 0.00 81 1011.1
20260506071517 69 210 1.0 4.0 0.00 0.00 0.00 80 1011.3
20260506061510 70 163 0.0 5.0 0.00 0.00 0.00 78 1011.9
20260506044502 71 327 1.0 6.0 0.00 0.00 0.00 75 1011.8
20260506043100 71 162 1.0 6.0 0.00 0.00 0.00 74 1011.6
20260506041608 71 35 1.0 5.0 0.00 0.00 0.00 74 1011.7
20260506040100 71 143 1.0 9.0 0.00 0.00 0.00 74 1011.7
20260506034659 71 191 2.0 6.0 0.00 0.00 0.00 74 1011.8
20260506033100 71 207 1.0 4.0 0.00 0.00 0.00 73 1011.8
20260506031557 72 163 0.0 4.0 0.00 0.00 0.00 72 1011.9
20260506030057 72 155 0.0 3.0 0.00 0.00 0.00 72 1011.5
20260506024556 71 158 0.0 5.0 0.00 0.00 0.00 71 1011.5
20260506023106 71 235 0.0 1.0 0.00 0.00 0.00 70 1011.5
20260506021612 71 217 0.0 2.0 0.00 0.00 0.00 69 1011.2
20260506020054 71 198 0.0 1.0 0.00 0.00 0.00 69 1011.3
20260506014554 71 198 0.0 0.0 0.00 0.00 0.00 69 1011.2
20260506013104 72 198 0.0 1.0 0.00 0.00 0.00 69 1011.2
20260506011613 72 198 0.0 1.0 0.00 0.00 0.00 68 1011.4
20260506010057 72 198 0.0 1.0 0.00 0.00 0.00 68 1011.3
20260506004550 73 198 0.0 3.0 0.00 0.00 0.00 66 1011.1
20260506003049 74 198 0.0 0.0 0.00 0.00 0.00 65 1011.0
20260506001552 75 198 0.0 1.0 0.00 0.00 0.00 64 1011.2
20260506000049 75 198 0.0 1.0 0.00 0.00 0.00 63 1011.4
20260505234545 75 198 0.0 2.0 0.00 0.00 0.00 62 1011.2
20260505233041 75 198 0.0 2.0 0.00 0.00 0.00 62 1011.5
20260505231556 76 198 0.0 2.0 0.00 0.00 0.00 61 1011.7
20260505230040 76 179 1.0 7.0 0.00 0.00 0.00 59 1011.7
20260505224539 76 119 0.0 3.0 0.00 0.00 0.00 60 1011.9
20260505223040 76 205 0.0 4.0 0.00 0.00 0.00 59 1011.9
20260505221538 77 150 1.0 4.0 0.00 0.00 0.00 58 1011.7
20260505220037 77 132 1.0 5.0 0.00 0.00 0.00 58 1011.7
20260505214549 78 248 1.0 8.0 0.00 0.00 0.00 57 1011.9
20260505213039 78 184 1.0 4.0 0.00 0.00 0.00 57 1011.9
20260505211535 79 200 0.0 5.0 0.00 0.00 0.00 59 1011.7